Location: Bannatyne
(13.0833°N, 59.5333°W)
Time: 17:48:15
(UTC+00:00)

Vanguard 3 - Pass Details

Date: 29 January 2020
Orbit: 508 x 3263 km, 33.3° (Epoch: 22 February)

Event Time Altitude Azimuth Distance (km) Brightness Sun altitude
Rises 05:52:11 0° 278° (W) 4,913 - -65.2°
Reaches altitude 10° 05:58:30 10° 251° (WSW) 3,190 - -63.7°
Maximum altitude 06:01:10 12° 230° (SW) 2,732 - -63.1°
Drops below altitude 10° 06:03:27 10° 209° (SSW) 2,619 - -62.5°
Sets 06:07:23 0° 176° (S) 3,133 - -61.6°
